"Period start","avg(HW err(1)/warn(2) (#))","avg(Visibility (m))","avg(Weather code (#))","avg(Precip intensity (mm/h))","min(HW err(1)/warn(2) (#))","max(HW err(1)/warn(2) (#))","std(HW err(1)/warn(2) (#))","med(HW err(1)/warn(2) (#))","min(Visibility (m))","max(Visibility (m))","std(Visibility (m))","med(Visibility (m))","min(Weather code (#))","max(Weather code (#))","std(Weather code (#))","med(Weather code (#))","min(Precip intensity (mm/h))","max(Precip intensity (mm/h))","std(Precip intensity (mm/h))","med(Precip intensity (mm/h))"
2013-09-30 00:00:00,2,25434,0,0.00,2,2,0,2,12966,38173,8699,24239,0,0,0,0,0.00,0.00,0.00,0.00
2013-09-30 00:10:00,2,33593,0,0.00,2,2,0,2,14780,50000,13542,35768,0,0,0,0,0.00,0.00,0.00,0.00
2013-09-30 00:20:00,2,36770,0,0.00,2,2,0,2,21852,42996,6081,37678,0,0,0,0,0.00,0.00,0.00,0.00
2013-09-30 00:30:00,2,26805,27,0.02,2,2,0,2,10972,48360,11262,27094,0,77,30,20,0.00,0.05,0.02,0.00
2013-09-30 00:40:00,2,13601,76,0.03,2,2,0,2,9385,19495,3022,12848,71,77,2,77,0.00,0.05,0.03,0.03
2013-09-30 00:50:00,2,8437,77,0.04,2,2,0,2,5197,11676,1916,9116,77,77,0,77,0.00,0.10,0.03,0.05
2013-09-30 01:00:00,2,3878,75,0.20,2,2,0,2,3164,4270,355,4026,71,77,3,77,0.10,0.50,0.12,0.15
2013-09-30 01:10:00,2,4873,71,0.10,2,2,0,2,3784,6720,978,4551,71,71,0,71,0.05,0.15,0.04,0.10
2013-09-30 01:20:00,2,6118,76,0.11,2,2,0,2,4597,7401,964,6265,71,77,2,77,0.05,0.20,0.06,0.10
2013-09-30 01:30:00,2,4011,74,0.27,2,2,0,2,2838,6303,1068,3775,71,77,3,74,0.05,0.60,0.20,0.28
2013-09-30 01:40:00,2,2616,71,0.74,2,2,0,2,1993,3621,558,2486,71,71,0,71,0.25,1.20,0.35,0.70
2013-09-30 01:50:00,2,2772,71,1.13,2,2,0,2,1975,3347,450,2924,71,71,0,71,0.45,1.60,0.37,1.25
2013-09-30 02:00:00,2,4661,71,1.13,2,2,0,2,2724,7587,1376,4534,71,71,0,71,0.50,1.50,0.32,1.15
2013-09-30 02:10:00,2,7938,71,0.51,2,2,0,2,6251,9958,1111,7730,71,71,0,71,0.20,0.90,0.19,0.50
2013-09-30 02:20:00,2,5322,71,0.90,2,2,0,2,3772,7323,1053,5477,71,71,0,71,0.40,1.55,0.37,0.70
2013-09-30 02:30:00,2,5602,71,0.72,2,2,0,2,4751,6259,489,5760,71,71,0,71,0.40,1.30,0.25,0.70
2013-09-30 02:40:00,2,5280,71,0.75,2,2,0,2,2680,6883,1246,5488,71,71,0,71,0.35,1.60,0.40,0.62
2013-09-30 02:50:00,2,2182,71,2.56,2,2,0,2,1378,4542,885,1964,71,71,0,71,0.80,3.85,0.85,2.80
2013-09-30 03:00:00,2,2617,71,1.10,2,2,0,2,1563,4104,697,2624,71,71,0,71,0.40,2.40,0.67,0.90
2013-09-30 03:10:00,2,8839,73,0.10,2,2,0,2,4346,15544,3235,8942,71,77,3,71,0.00,0.25,0.08,0.08
2013-09-30 03:20:00,2,9258,76,0.04,2,2,0,2,5458,14326,3220,8214,71,77,2,77,0.00,0.10,0.04,0.05
2013-09-30 03:30:00,2,4908,77,0.07,2,2,0,2,3654,6404,792,4913,77,77,0,77,0.05,0.15,0.03,0.05
2013-09-30 03:40:00,2,7496,77,0.04,2,2,0,2,6191,9167,926,7634,77,77,0,77,0.00,0.05,0.02,0.05
2013-09-30 03:50:00,2,11843,77,0.01,2,2,0,2,7305,15631,2366,12348,77,77,0,77,0.00,0.05,0.02,0.00
2013-09-30 04:00:00,2,35842,30,0.00,2,2,0,2,15592,50000,11746,37732,0,77,36,0,0.00,0.00,0.00,0.00
2013-09-30 04:10:00,2,44218,0,0.00,2,2,0,2,35970,50000,5153,44382,0,0,0,0,0.00,0.00,0.00,0.00
2013-09-30 04:20:00,2,40443,0,0.00,2,2,0,2,31172,49639,5209,40306,0,0,0,0,0.00,0.00,0.00,0.00
2013-09-30 04:30:00,2,37098,0,0.00,2,2,0,2,25689,48412,6799,37822,0,0,0,0,0.00,0.00,0.00,0.00
2013-09-30 04:40:00,2,48816,0,0.00,2,2,0,2,42255,50000,2343,50000,0,0,0,0,0.00,0.00,0.00,0.00
2013-09-30 04:50:00,2,50000,0,0.00,2,2,0,2,50000,50000,0,50000,0,0,0,0,0.00,0.00,0.00,0.00
2013-09-30 05:00:00,2,49879,0,0.00,2,2,0,2,48791,50000,363,50000,0,0,0,0,0.00,0.00,0.00,0.00
2013-09-30 05:10:00,2,49355,0,0.00,2,2,0,2,46452,50000,1213,50000,0,0,0,0,0.00,0.00,0.00,0.00
2013-09-30 05:20:00,2,48086,0,0.00,2,2,0,2,38409,50000,3435,49596,0,0,0,0,0.00,0.00,0.00,0.00
2013-09-30 05:30:00,2,50000,0,0.00,2,2,0,2,50000,50000,0,50000,0,0,0,0,0.00,0.00,0.00,0.00
2013-09-30 05:40:00,2,45858,58,0.02,2,2,0,2,28589,50000,7145,50000,0,71,23,71,0.00,0.10,0.03,0.00
2013-09-30 05:50:00,2,46000,7,0.00,2,2,0,2,32945,50000,6177,49549,0,71,21,0,0.00,0.00,0.00,0.00
2013-09-30 06:00:00,2,50000,0,0.00,2,2,0,2,50000,50000,0,50000,0,0,0,0,0.00,0.00,0.00,0.00
2013-09-30 06:10:00,2,49930,0,0.00,2,2,0,2,49297,50000,211,50000,0,0,0,0,0.00,0.00,0.00,0.00
2013-09-30 06:20:00,2,50000,0,0.00,2,2,0,2,50000,50000,0,50000,0,0,0,0,0.00,0.00,0.00,0.00
2013-09-30 06:30:00,2,50000,0,0.00,2,2,0,2,50000,50000,0,50000,0,0,0,0,0.00,0.00,0.00,0.00
2013-09-30 06:40:00,2,50000,0,0.00,2,2,0,2,50000,50000,0,50000,0,0,0,0,0.00,0.00,0.00,0.00
2013-09-30 06:50:00,2,49945,0,0.00,2,2,0,2,49450,50000,165,50000,0,0,0,0,0.00,0.00,0.00,0.00
2013-09-30 07:00:00,2,50000,0,0.00,2,2,0,2,50000,50000,0,50000,0,0,0,0,0.00,0.00,0.00,0.00
2013-09-30 07:10:00,2,49998,0,0.00,2,2,0,2,49984,50000,5,50000,0,0,0,0,0.00,0.00,0.00,0.00
2013-09-30 07:20:00,2,50000,0,0.00,2,2,0,2,50000,50000,0,50000,0,0,0,0,0.00,0.00,0.00,0.00
2013-09-30 07:30:00,2,49278,0,0.00,2,2,0,2,44282,50000,1725,50000,0,0,0,0,0.00,0.00,0.00,0.00
2013-09-30 07:40:00,2,50000,0,0.00,2,2,0,2,50000,50000,0,50000,0,0,0,0,0.00,0.00,0.00,0.00
2013-09-30 07:50:00,2,46280,0,0.00,2,2,0,2,40378,50000,3595,46517,0,0,0,0,0.00,0.00,0.00,0.00
2013-09-30 08:00:00,2,48558,0,0.00,2,2,0,2,42560,50000,2490,50000,0,0,0,0,0.00,0.00,0.00,0.00
2013-09-30 08:10:00,2,50000,0,0.00,2,2,0,2,50000,50000,0,50000,0,0,0,0,0.00,0.00,0.00,0.00
2013-09-30 08:20:00,2,49882,0,0.00,2,2,0,2,48974,50000,306,50000,0,0,0,0,0.00,0.00,0.00,0.00
2013-09-30 08:30:00,2,49732,0,0.00,2,2,0,2,47320,50000,804,50000,0,0,0,0,0.00,0.00,0.00,0.00
2013-09-30 08:40:00,2,50000,0,0.00,2,2,0,2,50000,50000,0,50000,0,0,0,0,0.00,0.00,0.00,0.00
2013-09-30 08:50:00,2,50000,0,0.00,2,2,0,2,50000,50000,0,50000,0,0,0,0,0.00,0.00,0.00,0.00
2013-09-30 09:00:00,2,50000,0,0.00,2,2,0,2,50000,50000,0,50000,0,0,0,0,0.00,0.00,0.00,0.00
2013-09-30 09:10:00,2,50000,0,0.00,2,2,0,2,50000,50000,0,50000,0,0,0,0,0.00,0.00,0.00,0.00
2013-09-30 09:20:00,2,50000,0,0.00,2,2,0,2,50000,50000,0,50000,0,0,0,0,0.00,0.00,0.00,0.00
2013-09-30 09:30:00,2,50000,0,0.00,2,2,0,2,50000,50000,0,50000,0,0,0,0,0.00,0.00,0.00,0.00
2013-09-30 09:40:00,2,50000,0,0.00,2,2,0,2,50000,50000,0,50000,0,0,0,0,0.00,0.00,0.00,0.00
2013-09-30 09:50:00,2,50000,0,0.00,2,2,0,2,50000,50000,0,50000,0,0,0,0,0.00,0.00,0.00,0.00
2013-09-30 10:00:00,2,50000,0,0.00,2,2,0,2,50000,50000,0,50000,0,0,0,0,0.00,0.00,0.00,0.00
2013-09-30 10:10:00,2,49192,0,0.00,2,2,0,2,46220,50000,1451,50000,0,0,0,0,0.00,0.00,0.00,0.00
2013-09-30 10:20:00,2,48300,0,0.00,2,2,0,2,43796,50000,2469,50000,0,0,0,0,0.00,0.00,0.00,0.00
2013-09-30 10:30:00,2,50000,0,0.00,2,2,0,2,50000,50000,0,50000,0,0,0,0,0.00,0.00,0.00,0.00
2013-09-30 10:40:00,2,50000,0,0.00,2,2,0,2,50000,50000,0,50000,0,0,0,0,0.00,0.00,0.00,0.00
2013-09-30 10:50:00,2,50000,0,0.00,2,2,0,2,50000,50000,0,50000,0,0,0,0,0.00,0.00,0.00,0.00
2013-09-30 11:00:00,2,49974,0,0.00,2,2,0,2,49831,50000,55,50000,0,0,0,0,0.00,0.00,0.00,0.00
2013-09-30 11:10:00,2,47003,0,0.00,2,2,0,2,38680,50000,4416,49648,0,0,0,0,0.00,0.00,0.00,0.00
2013-09-30 11:20:00,2,48671,0,0.00,2,2,0,2,42109,50000,2716,50000,0,0,0,0,0.00,0.00,0.00,0.00
2013-09-30 11:30:00,2,50000,0,0.00,2,2,0,2,50000,50000,0,50000,0,0,0,0,0.00,0.00,0.00,0.00
2013-09-30 11:40:00,2,48790,0,0.00,2,2,0,2,45155,50000,1875,50000,0,0,0,0,0.00,0.00,0.00,0.00
2013-09-30 11:50:00,2,22090,45,0.02,2,2,0,2,10384,42015,10702,19824,0,78,37,71,0.00,0.05,0.02,0.00
2013-09-30 12:00:00,2,11290,77,0.06,2,2,0,2,9745,13583,1187,11016,77,78,0,77,0.00,0.10,0.04,0.05
2013-09-30 12:10:00,2,16113,78,0.02,2,2,0,2,12466,18367,1830,16248,78,78,0,78,0.00,0.05,0.02,0.00
2013-09-30 12:20:00,2,29386,78,0.00,2,2,0,2,19849,45260,9226,27154,78,78,0,78,0.00,0.00,0.00,0.00
2013-09-30 12:30:00,2,48032,55,0.00,2,2,0,2,44198,50000,2311,49466,0,78,36,78,0.00,0.00,0.00,0.00
2013-09-30 12:40:00,2,35811,0,0.00,2,2,0,2,26344,49571,8960,31020,0,0,0,0,0.00,0.00,0.00,0.00
2013-09-30 12:50:00,2,47334,0,0.00,2,2,0,2,35216,50000,4827,50000,0,0,0,0,0.00,0.00,0.00,0.00
2013-09-30 13:00:00,2,49900,0,0.00,2,2,0,2,48998,50000,301,50000,0,0,0,0,0.00,0.00,0.00,0.00
2013-09-30 13:10:00,2,48664,0,0.00,2,2,0,2,43783,50000,2183,50000,0,0,0,0,0.00,0.00,0.00,0.00
2013-09-30 13:20:00,2,36270,0,0.00,2,2,0,2,23394,48985,8424,39364,0,0,0,0,0.00,0.00,0.00,0.00
2013-09-30 13:30:00,2,34322,0,0.00,2,2,0,2,20294,50000,11035,32408,0,0,0,0,0.00,0.00,0.00,0.00
2013-09-30 13:40:00,2,48853,0,0.00,2,2,0,2,45347,50000,1776,49817,0,0,0,0,0.00,0.00,0.00,0.00
2013-09-30 13:50:00,2,34462,0,0.00,2,2,0,2,21079,50000,11455,29202,0,0,0,0,0.00,0.00,0.00,0.00
2013-09-30 14:00:00,2,27125,0,0.00,2,2,0,2,20918,34642,3995,26911,0,0,0,0,0.00,0.00,0.00,0.00
2013-09-30 14:10:00,2,36770,0,0.00,2,2,0,2,23515,50000,10215,34230,0,0,0,0,0.00,0.00,0.00,0.00
2013-09-30 14:20:00,2,50000,0,0.00,2,2,0,2,50000,50000,0,50000,0,0,0,0,0.00,0.00,0.00,0.00
2013-09-30 14:30:00,2,50000,0,0.00,2,2,0,2,50000,50000,0,50000,0,0,0,0,0.00,0.00,0.00,0.00
2013-09-30 14:40:00,2,50000,0,0.00,2,2,0,2,50000,50000,0,50000,0,0,0,0,0.00,0.00,0.00,0.00
2013-09-30 14:50:00,2,49996,0,0.00,2,2,0,2,49956,50000,13,50000,0,0,0,0,0.00,0.00,0.00,0.00
2013-09-30 15:00:00,2,50000,0,0.00,2,2,0,2,50000,50000,0,50000,0,0,0,0,0.00,0.00,0.00,0.00
2013-09-30 15:10:00,2,49866,0,0.00,2,2,0,2,48660,50000,402,50000,0,0,0,0,0.00,0.00,0.00,0.00
2013-09-30 15:20:00,2,45175,0,0.00,2,2,0,2,34653,50000,5782,48604,0,0,0,0,0.00,0.00,0.00,0.00
2013-09-30 15:30:00,2,45022,0,0.00,2,2,0,2,33408,50000,5872,47252,0,0,0,0,0.00,0.00,0.00,0.00
2013-09-30 15:40:00,2,36679,0,0.00,2,2,0,2,21176,50000,12002,41170,0,0,0,0,0.00,0.00,0.00,0.00
2013-09-30 15:50:00,2,27059,0,0.00,2,2,0,2,19620,41134,7111,25516,0,0,0,0,0.00,0.00,0.00,0.00
2013-09-30 16:00:00,2,22824,0,0.00,2,2,0,2,15544,29155,4340,23788,0,0,0,0,0.00,0.00,0.00,0.00
2013-09-30 16:10:00,2,27636,0,0.00,2,2,0,2,21012,34185,4380,27678,0,0,0,0,0.00,0.00,0.00,0.00
2013-09-30 16:20:00,2,21018,0,0.00,2,2,0,2,19757,24930,1442,20662,0,0,0,0,0.00,0.00,0.00,0.00
2013-09-30 16:30:00,2,46196,0,0.00,2,2,0,2,29196,50000,6704,50000,0,0,0,0,0.00,0.00,0.00,0.00
2013-09-30 16:40:00,2,49811,0,0.00,2,2,0,2,48846,50000,367,50000,0,0,0,0,0.00,0.00,0.00,0.00
2013-09-30 16:50:00,2,50000,0,0.00,2,2,0,2,50000,50000,0,50000,0,0,0,0,0.00,0.00,0.00,0.00
2013-09-30 17:00:00,2,50000,0,0.00,2,2,0,2,50000,50000,0,50000,0,0,0,0,0.00,0.00,0.00,0.00
2013-09-30 17:10:00,2,50000,0,0.00,2,2,0,2,50000,50000,0,50000,0,0,0,0,0.00,0.00,0.00,0.00
2013-09-30 17:20:00,2,50000,0,0.00,2,2,0,2,50000,50000,0,50000,0,0,0,0,0.00,0.00,0.00,0.00
2013-09-30 17:30:00,2,50000,0,0.00,2,2,0,2,50000,50000,0,50000,0,0,0,0,0.00,0.00,0.00,0.00
2013-09-30 17:40:00,2,50000,0,0.00,2,2,0,2,50000,50000,0,50000,0,0,0,0,0.00,0.00,0.00,0.00
2013-09-30 17:50:00,2,50000,0,0.00,2,2,0,2,50000,50000,0,50000,0,0,0,0,0.00,0.00,0.00,0.00
2013-09-30 18:00:00,2,50000,0,0.00,2,2,0,2,50000,50000,0,50000,0,0,0,0,0.00,0.00,0.00,0.00
2013-09-30 18:10:00,2,50000,0,0.00,2,2,0,2,50000,50000,0,50000,0,0,0,0,0.00,0.00,0.00,0.00
2013-09-30 18:20:00,2,50000,0,0.00,2,2,0,2,50000,50000,0,50000,0,0,0,0,0.00,0.00,0.00,0.00
2013-09-30 18:30:00,2,50000,0,0.00,2,2,0,2,50000,50000,0,50000,0,0,0,0,0.00,0.00,0.00,0.00
2013-09-30 18:40:00,2,50000,0,0.00,2,2,0,2,50000,50000,0,50000,0,0,0,0,0.00,0.00,0.00,0.00
2013-09-30 18:50:00,2,50000,0,0.00,2,2,0,2,50000,50000,0,50000,0,0,0,0,0.00,0.00,0.00,0.00
2013-09-30 19:00:00,2,50000,0,0.00,2,2,0,2,50000,50000,0,50000,0,0,0,0,0.00,0.00,0.00,0.00
2013-09-30 19:10:00,2,50000,0,0.00,2,2,0,2,50000,50000,0,50000,0,0,0,0,0.00,0.00,0.00,0.00
2013-09-30 19:20:00,2,50000,0,0.00,2,2,0,2,50000,50000,0,50000,0,0,0,0,0.00,0.00,0.00,0.00
2013-09-30 19:30:00,2,50000,0,0.00,2,2,0,2,50000,50000,0,50000,0,0,0,0,0.00,0.00,0.00,0.00
2013-09-30 19:40:00,2,50000,0,0.00,2,2,0,2,50000,50000,0,50000,0,0,0,0,0.00,0.00,0.00,0.00
2013-09-30 19:50:00,2,50000,0,0.00,2,2,0,2,50000,50000,0,50000,0,0,0,0,0.00,0.00,0.00,0.00
2013-09-30 20:00:00,2,50000,0,0.00,2,2,0,2,50000,50000,0,50000,0,0,0,0,0.00,0.00,0.00,0.00
2013-09-30 20:10:00,2,50000,0,0.00,2,2,0,2,50000,50000,0,50000,0,0,0,0,0.00,0.00,0.00,0.00
2013-09-30 20:20:00,2,50000,0,0.00,2,2,0,2,50000,50000,0,50000,0,0,0,0,0.00,0.00,0.00,0.00
2013-09-30 20:30:00,2,50000,0,0.00,2,2,0,2,50000,50000,0,50000,0,0,0,0,0.00,0.00,0.00,0.00
2013-09-30 20:40:00,2,50000,0,0.00,2,2,0,2,50000,50000,0,50000,0,0,0,0,0.00,0.00,0.00,0.00
2013-09-30 20:50:00,2,50000,0,0.00,2,2,0,2,50000,50000,0,50000,0,0,0,0,0.00,0.00,0.00,0.00
2013-09-30 21:00:00,2,50000,0,0.00,2,2,0,2,50000,50000,0,50000,0,0,0,0,0.00,0.00,0.00,0.00
2013-09-30 21:10:00,2,50000,0,0.00,2,2,0,2,50000,50000,0,50000,0,0,0,0,0.00,0.00,0.00,0.00
2013-09-30 21:20:00,2,50000,0,0.00,2,2,0,2,50000,50000,0,50000,0,0,0,0,0.00,0.00,0.00,0.00
2013-09-30 21:30:00,2,50000,0,0.00,2,2,0,2,50000,50000,0,50000,0,0,0,0,0.00,0.00,0.00,0.00
2013-09-30 21:40:00,2,50000,0,0.00,2,2,0,2,50000,50000,0,50000,0,0,0,0,0.00,0.00,0.00,0.00
2013-09-30 21:50:00,2,50000,0,0.00,2,2,0,2,50000,50000,0,50000,0,0,0,0,0.00,0.00,0.00,0.00
2013-09-30 22:00:00,2,50000,0,0.00,2,2,0,2,50000,50000,0,50000,0,0,0,0,0.00,0.00,0.00,0.00
2013-09-30 22:10:00,2,50000,0,0.00,2,2,0,2,50000,50000,0,50000,0,0,0,0,0.00,0.00,0.00,0.00
2013-09-30 22:20:00,2,49941,0,0.00,2,2,0,2,49410,50000,177,50000,0,0,0,0,0.00,0.00,0.00,0.00
2013-09-30 22:30:00,2,50000,0,0.00,2,2,0,2,50000,50000,0,50000,0,0,0,0,0.00,0.00,0.00,0.00
2013-09-30 22:40:00,2,49962,0,0.00,2,2,0,2,49617,50000,115,50000,0,0,0,0,0.00,0.00,0.00,0.00
2013-09-30 22:50:00,2,50000,0,0.00,2,2,0,2,50000,50000,0,50000,0,0,0,0,0.00,0.00,0.00,0.00
2013-09-30 23:00:00,2,50000,0,0.00,2,2,0,2,50000,50000,0,50000,0,0,0,0,0.00,0.00,0.00,0.00
2013-09-30 23:10:00,2,49751,0,0.00,2,2,0,2,48379,50000,526,50000,0,0,0,0,0.00,0.00,0.00,0.00
2013-09-30 23:20:00,2,49944,0,0.00,2,2,0,2,49438,50000,169,50000,0,0,0,0,0.00,0.00,0.00,0.00
2013-09-30 23:30:00,2,50000,0,0.00,2,2,0,2,50000,50000,0,50000,0,0,0,0,0.00,0.00,0.00,0.00
2013-09-30 23:40:00,2,50000,0,0.00,2,2,0,2,50000,50000,0,50000,0,0,0,0,0.00,0.00,0.00,0.00
2013-09-30 23:50:00,2,49804,0,0.00,2,2,0,2,48043,50000,587,50000,0,0,0,0,0.00,0.00,0.00,0.00
